When you browse on this site, cookies collect data to enhance your experience and personalize the content and advertising you see.
Visit our Privacy Policy to learn more. By continuing to use the site, you agree to this use of cookies and data.
  • In Schweiz
  • Länderverzeichnis
  • Für 7 Tage
  • Wassertemperatur
  • Satellitenkarten
  • Wetterkarte
  • Widgets
  • user-avatar
    Anmelden

    Stündliche Wetter Xuri

    Heute, 26 Mai, Sonntag

    Zeit Temperatur Niederschläge Wind Luftdruck Luftfeuchtigkeit
    00:00 +25°C° 0.5 mm 2 m/S 749 mmHg 91%
    01:00 +25°C° 0.5 mm 2 m/S 748 mmHg 92%
    02:00 +25°C° 0 mm 1 m/S 748 mmHg 93%
    03:00 +25°C° 1 mm 1 m/S 748 mmHg 93%
    04:00 +25°C° 1 mm 1 m/S 748 mmHg 93%
    05:00 +25°C° 1 mm 1 m/S 748 mmHg 93%
    06:00 +26°C° 0.5 mm 1 m/S 748 mmHg 91%
    07:00 +26°C° 0.5 mm 2 m/S 748 mmHg 88%
    08:00 +27°C° 0 mm 2 m/S 748 mmHg 85%
    09:00 +28°C° 0.7 mm 2 m/S 748 mmHg 84%
    10:00 +28°C° 0.7 mm 2 m/S 748 mmHg 83%
    11:00 +28°C° 0.7 mm 2 m/S 748 mmHg 82%
    12:00 +28°C° 1 mm 2 m/S 748 mmHg 83%
    13:00 +28°C° 1 mm 2 m/S 748 mmHg 85%
    14:00 +27°C° 1 mm 2 m/S 747 mmHg 86%
    15:00 +27°C° 0.5 mm 2 m/S 747 mmHg 86%
    16:00 +27°C° 0.5 mm 2 m/S 747 mmHg 86%
    17:00 +27°C° 0.5 mm 2 m/S 746 mmHg 86%
    18:00 +27°C° 0.1 mm 2 m/S 746 mmHg 87%
    19:00 +26°C° 0.1 mm 2 m/S 746 mmHg 89%
    20:00 +25°C° 0.1 mm 1 m/S 746 mmHg 91%
    21:00 +25°C° 0.1 mm 1 m/S 747 mmHg 91%
    22:00 +25°C° 0.1 mm 1 m/S 747 mmHg 92%
    23:00 +25°C° 0.1 mm 1 m/S 747 mmHg 92%

    Morgen, 27 Mai, Montag

    Zeit Temperatur Niederschläge Wind Luftdruck Luftfeuchtigkeit
    00:00 +25°C° 0.3 mm 1 m/S 747 mmHg 92%
    01:00 +25°C° 0.3 mm 1 m/S 747 mmHg 92%
    02:00 +25°C° 0.3 mm 1 m/S 747 mmHg 92%
    03:00 +25°C° 0.3 mm 1 m/S 747 mmHg 92%
    04:00 +25°C° 0.3 mm 1 m/S 747 mmHg 92%
    05:00 +25°C° 0.3 mm 1 m/S 747 mmHg 92%
    06:00 +26°C° 0.3 mm 1 m/S 747 mmHg 88%
    07:00 +28°C° 0.3 mm 1 m/S 748 mmHg 83%
    08:00 +29°C° 0.3 mm 1 m/S 748 mmHg 79%
    09:00 +30°C° 1.9 mm 1 m/S 748 mmHg 78%
    10:00 +30°C° 1.9 mm 1 m/S 748 mmHg 76%
    11:00 +31°C° 1.9 mm 1 m/S 748 mmHg 75%
    12:00 +31°C° 1.5 mm 1 m/S 748 mmHg 73%
    13:00 +32°C° 1.5 mm 1 m/S 748 mmHg 70%
    14:00 +33°C° 1.5 mm 1 m/S 748 mmHg 68%
    15:00 +32°C° 1.1 mm 1 m/S 748 mmHg 70%
    16:00 +32°C° 1.1 mm 1 m/S 748 mmHg 73%
    17:00 +31°C° 1.1 mm 2 m/S 747 mmHg 76%
    18:00 +30°C° 0.7 mm 1 m/S 748 mmHg 80%
    19:00 +28°C° 0.7 mm 1 m/S 749 mmHg 84%
    20:00 +27°C° 0.7 mm 1 m/S 749 mmHg 89%
    21:00 +26°C° 0.2 mm 1 m/S 750 mmHg 90%
    22:00 +26°C° 0.2 mm 1 m/S 750 mmHg 91%
    23:00 +25°C° 0.2 mm 2 m/S 751 mmHg 93%

    übermorgen, 28 Mai, Dienstag

    Zeit Temperatur Niederschläge Wind Luftdruck Luftfeuchtigkeit
    00:00 +25°C° 0 mm 2 m/S 751 mmHg 93%
    01:00 +24°C° 0 mm 2 m/S 751 mmHg 94%
    02:00 +24°C° 0 mm 3 m/S 751 mmHg 94%
    03:00 +22°C° 0 mm 3 m/S 751 mmHg 93%
    04:00 +21°C° 0 mm 3 m/S 751 mmHg 91%
    05:00 +20°C° 0 mm 3 m/S 751 mmHg 90%
    06:00 +20°C° 0 mm 3 m/S 752 mmHg 85%
    07:00 +21°C° 0 mm 4 m/S 752 mmHg 80%
    08:00 +21°C° 0 mm 4 m/S 753 mmHg 75%
    09:00 +23°C° 0 mm 4 m/S 753 mmHg 69%
    10:00 +25°C° 0 mm 4 m/S 753 mmHg 64%
    11:00 +27°C° 0 mm 4 m/S 753 mmHg 58%
    12:00 +28°C° 0 mm 4 m/S 753 mmHg 56%
    13:00 +28°C° 0 mm 4 m/S 752 mmHg 54%
    14:00 +29°C° 0 mm 4 m/S 752 mmHg 52%
    15:00 +28°C° 0 mm 4 m/S 752 mmHg 53%
    16:00 +28°C° 0 mm 4 m/S 752 mmHg 55%
    17:00 +28°C° 0 mm 4 m/S 752 mmHg 56%
    18:00 +26°C° 0 mm 3 m/S 752 mmHg 60%
    19:00 +24°C° 0 mm 3 m/S 752 mmHg 64%
    20:00 +21°C° 0 mm 2 m/S 753 mmHg 68%
    21:00 +21°C° 0 mm 2 m/S 753 mmHg 69%
    22:00 +20°C° 0 mm 2 m/S 754 mmHg 69%
    23:00 +20°C° 0 mm 2 m/S 754 mmHg 69%

    29 Mai, Mittwoch

    Zeit Temperatur Niederschläge Wind Luftdruck Luftfeuchtigkeit
    00:00 +19°C° 0 mm 2 m/S 753 mmHg 69%
    01:00 +19°C° 0 mm 2 m/S 753 mmHg 68%
    02:00 +19°C° 0 mm 2 m/S 753 mmHg 68%
    03:00 +19°C° 0 mm 2 m/S 753 mmHg 67%
    04:00 +19°C° 0 mm 2 m/S 752 mmHg 65%
    05:00 +19°C° 0 mm 2 m/S 752 mmHg 64%
    06:00 +20°C° 0 mm 2 m/S 753 mmHg 61%
    07:00 +21°C° 0 mm 2 m/S 753 mmHg 58%
    08:00 +23°C° 0 mm 2 m/S 753 mmHg 55%
    09:00 +25°C° 0 mm 2 m/S 753 mmHg 53%
    10:00 +26°C° 0 mm 2 m/S 753 mmHg 51%
    11:00 +28°C° 0 mm 2 m/S 753 mmHg 49%
    12:00 +29°C° 0 mm 2 m/S 752 mmHg 48%
    13:00 +30°C° 0 mm 2 m/S 752 mmHg 47%
    14:00 +31°C° 0 mm 2 m/S 751 mmHg 47%
    15:00 +31°C° 0 mm 1 m/S 751 mmHg 50%
    16:00 +30°C° 0 mm 1 m/S 751 mmHg 53%
    17:00 +30°C° 0 mm 1 m/S 751 mmHg 56%
    18:00 +28°C° 0 mm 1 m/S 751 mmHg 61%
    19:00 +27°C° 0 mm 1 m/S 751 mmHg 65%
    20:00 +25°C° 0 mm 1 m/S 751 mmHg 69%
    21:00 +25°C° 0 mm 1 m/S 752 mmHg 73%
    22:00 +24°C° 0 mm 1 m/S 752 mmHg 76%
    23:00 +24°C° 0 mm 1 m/S 752 mmHg 79%

    30 Mai, Donnerstag

    Zeit Temperatur Niederschläge Wind Luftdruck Luftfeuchtigkeit
    00:00 +23°C° 0 mm 1 m/S 752 mmHg 81%
    01:00 +23°C° 0 mm 1 m/S 752 mmHg 83%
    02:00 +23°C° 0 mm 1 m/S 751 mmHg 85%
    03:00 +23°C° 0.1 mm 1 m/S 751 mmHg 84%
    04:00 +23°C° 0.1 mm 1 m/S 751 mmHg 84%
    05:00 +23°C° 0.1 mm 1 m/S 751 mmHg 83%
    06:00 +23°C° 0.2 mm 1 m/S 751 mmHg 81%
    07:00 +24°C° 0.2 mm 1 m/S 751 mmHg 79%
    08:00 +24°C° 0.2 mm 1 m/S 752 mmHg 77%
    09:00 +26°C° 0 mm 1 m/S 752 mmHg 71%
    10:00 +29°C° 0 mm 1 m/S 752 mmHg 65%
    11:00 +29°C° 0 mm 0 m/S 751 mmHg 58%
    12:00 +28°C° 0.1 mm 0 m/S 751 mmHg 61%
    13:00 +28°C° 0.1 mm 0 m/S 750 mmHg 63%
    14:00 +30°C° 0.1 mm 1 m/S 750 mmHg 66%
    15:00 +29°C° 0.6 mm 1 m/S 750 mmHg 70%
    16:00 +28°C° 0.6 mm 1 m/S 749 mmHg 75%
    17:00 +26°C° 0.6 mm 0 m/S 749 mmHg 79%
    18:00 +27°C° 0.1 mm 1 m/S 749 mmHg 82%
    19:00 +26°C° 0.1 mm 1 m/S 750 mmHg 85%
    20:00 +25°C° 0.1 mm 1 m/S 750 mmHg 88%
    21:00 +25°C° 0 mm 1 m/S 750 mmHg 88%
    22:00 +24°C° 0 mm 1 m/S 750 mmHg 88%
    23:00 +24°C° 0 mm 1 m/S 751 mmHg 88%

    31 Mai, Freitag

    Zeit Temperatur Niederschläge Wind Luftdruck Luftfeuchtigkeit
    00:00 +24°C° 0.2 mm 1 m/S 750 mmHg 88%
    01:00 +24°C° 0.2 mm 1 m/S 750 mmHg 89%
    02:00 +24°C° 0.2 mm 1 m/S 749 mmHg 89%
    03:00 +24°C° 0.2 mm 1 m/S 749 mmHg 89%
    04:00 +24°C° 0.2 mm 1 m/S 749 mmHg 90%
    05:00 +24°C° 0.2 mm 1 m/S 749 mmHg 90%
    06:00 +24°C° 1.5 mm 1 m/S 750 mmHg 91%
    07:00 +24°C° 1.5 mm 1 m/S 750 mmHg 92%
    08:00 +24°C° 1.5 mm 1 m/S 750 mmHg 93%
    09:00 +24°C° 2.9 mm 1 m/S 750 mmHg 94%
    10:00 +24°C° 2.9 mm 1 m/S 750 mmHg 95%
    11:00 +24°C° 2.9 mm 1 m/S 750 mmHg 96%
    12:00 +24°C° 2.2 mm 1 m/S 749 mmHg 96%
    13:00 +24°C° 2.2 mm 1 m/S 749 mmHg 96%
    14:00 +24°C° 2.2 mm 1 m/S 749 mmHg 97%
    15:00 +24°C° 2.6 mm 1 m/S 748 mmHg 97%
    16:00 +24°C° 2.6 mm 1 m/S 748 mmHg 96%
    17:00 +24°C° 2.6 mm 1 m/S 748 mmHg 96%
    18:00 +23°C° 1 mm 1 m/S 748 mmHg 96%
    19:00 +23°C° 1 mm 1 m/S 749 mmHg 97%
    20:00 +23°C° 1 mm 1 m/S 749 mmHg 97%
    21:00 +23°C° 0.1 mm 1 m/S 749 mmHg 97%
    22:00 +23°C° 0.1 mm 1 m/S 749 mmHg 97%
    23:00 +22°C° 0.1 mm 1 m/S 749 mmHg 96%
    Mehr zeigen